FREGAT R/B

Satellite information

Favourite Embed

Satellite Type and Status

ROCKET BODYIN ORBIT

Key statistics

Satellite FREGAT R/B at a glance.

Uptime

701

Days in orbit

Revolutions

≈ 2.1

Per day

Orbit

MEO

Medium Earth Orbit

Inclination

65.1

Latest

Satellite identification and parameters

Extended collection of information and parameters for FREGAT R/B.

Object identification

Identified? True

Debris? False

Object name: FREGAT R/B

International designator: 2023-114B

Object number (NORAD): 57518

Object ID (CCSDS): 57518

Country: COMMONWEALTH OF INDEPENDENT STATES (CIS)

Current information (Y/N): Y

RCS size: LARGE

Orbital parameters

Period: 673.052 minutes

Inclination: 65.1065 deg

SMA: 25440.516 km

Apoapsis: 19128.958 km

Periapsis: 18995.803 km

RAAN: 84.1428 deg

Eccentricy: 0.002617

Argument of periapsis: 197.6407 deg

Mean anomaly: 162.3062 deg

Mean motion: 2.13950792 rev/day

Mean motion (dot): -0.00000053 rev/day2

B* drag term: 0.0 1/REarth

Two-line elements (TLE)

Creation date: July 5, 2025, 5:45 p.m.

Reference frame: TEME

Reference center: EARTH

Epoch: July 5, 2025, 12:03 a.m. UTC

TLE line 0: 0 FREGAT R/B

TLE line 1: 1 57518U 23114B 25186.00216945 -.00000053 00000-0 00000-0 0 9995

TLE line 2: 2 57518 65.1065 84.1428 0026170 197.6407 162.3062 2.13950792 14933

Live tracking on map

Real-time ground track for satellite FREGAT R/B.

In-orbit conjunctions

A list of the most updated potential collisions computed for object FREGAT R/B.

Target Orbit TCA Probability of collision Miss distance Type
SL-12 R/B(2) MEO 2025-06-30 06:20:30 TBA 2895.0 (m) ROCKET BODY
COSMOS 2024 (ETALON 2) MEO 2025-02-11 02:42:05 TBA 4370.0 (m) PAYLOAD
SL-12 R/B(2) MEO 2025-02-05 23:07:03 TBA 3949.0 (m) ROCKET BODY

Associated space launch

Glonass-K2 are the fourth generation of satellite design for GLONASS satellite navigation system. GLONASS is a Russian space-based navigation system comparable to the similar GPS and Galileo systems. This generation improves on accuracy, power consumption and design life. Each satellite is unpressurized and weighs 1645 kg, and has an operational lifetime of 10 years.

FREGAT R/B was lifted into orbit during the mission ‘Soyuz 2.1b/Fregat-M | Glonass-K2 No. 13 (Kosmos 2569)’, on board a Soyuz 2.1b/Fregat-M space rocket.

The launch took place on Aug. 7, 2023, 1:19 p.m. from 43/3 (43L).

For more information about the launch, click the button.

Launch to space Soyuz 2.1b/Fregat-M | Glonass-K2 No. 13 (Kosmos 2569)
Soyuz 2.1b/Fregat-M | Glonass-K2 No. 13 (Kosmos 2569)

Agency: Russian Space Forces

Status: Launch Successful

Launch date: Aug. 7, 2023, 1:19 p.m. UTC

Rocket: Soyuz 2.1b/Fregat-M

Launch pad: 43/3 (43L)

Location: Plesetsk Cosmodrome, Russian Federation

...

Latest news about this satellite

There are no fresh news available about this satellite. Check back as we update our databases every day.


Newsletter sign-up

Weekly statistics, charts and insights to help you stay on top of the space industry.